Вернуться в каталог

ARIANE 2 DEB

LostGTO
NORAD 33568·DEBRIS·🇫🇷 France

Запущен Jan 27, 1989 с Guiana Space Centre

Loading…

TLE

УстаревшееSource: Space-Track

Эпоха: Mar 3, 2026, 21:49 UTC

1 33568U 89006BL  26062.90932569  .00000009  00000-0  66978-3 0  9995
2 33568   8.5184  11.0885 7185921 204.2629  90.0267  2.30212773113808

Отслеживайте ARIANE 2 DEB в реальном времени с AllMySat

Download on the App Store